GW2260 Weather Reports


Display with metric or nautical units.
time (UTC)temp
F
wind
direction
speed
MPH
gust
MPH
rain 1hr
in
rain 24hr
in
rain mn
in
humidity
%
barometer
mb
20260905215917 75 222 5.0 10.0 0.00 0.00 0.00 80 1014.5
20260905214917 76 113 2.0 5.0 0.00 0.00 0.00 78 1014.5
20260905213937 75 324 1.0 3.0 0.00 0.00 0.00 81 1014.5
20260905212917 75 235 2.0 5.0 0.00 0.00 0.00 80 1014.5
20260905211917 74 322 2.0 4.0 0.00 0.00 0.00 80 1014.6
20260905210917 74 259 1.0 5.0 0.00 0.00 0.00 80 1014.6
20260905205917 74 295 1.0 3.0 0.00 0.00 0.00 81 1014.6
20260905204937 73 214 3.0 5.0 0.00 0.00 0.00 80 1014.8
20260905203917 73 352 1.0 3.0 0.00 0.00 0.00 80 1014.9
20260905203037 73 216 1.0 4.0 0.00 0.00 0.00 79 1014.8
20260905201917 73 340 3.0 4.0 0.00 0.00 0.00 77 1014.7
20260905200917 73 300 1.0 2.0 0.00 0.00 0.00 79 1014.5
20260905195937 72 320 2.0 3.0 0.00 0.00 0.00 81 1014.4
20260905194917 73 305 1.0 2.0 0.00 0.00 0.00 77 1014.4
20260905193917 73 289 1.0 3.0 0.00 0.00 0.00 78 1014.6
20260905192917 73 276 2.0 4.0 0.00 0.00 0.00 77 1014.6
20260905191917 73 0.0 2.0 0.00 0.00 0.00 74 1014.3
20260905190917 72 293 1.0 2.0 0.00 0.00 0.00 76 1014.5
20260905185957 71 297 1.0 2.0 0.00 0.00 0.00 74 1014.4
20260905184918 71 296 1.0 2.0 0.00 0.00 0.00 75 1014.1
20260905183917 69 285 1.0 2.0 0.00 0.00 0.00 73 1014.1
20260905182917 68 158 1.0 1.0 0.00 0.00 0.00 77 1014.0
20260905181918 66 0.0 0.0 0.00 0.00 0.00 78 1014.1
20260905180917 64 122 0.0 1.0 0.00 0.00 0.00 80 1014.4
20260905175938 63 122 1.0 2.0 0.00 0.00 0.00 80 1014.1
20260905174917 61 129 1.0 3.0 0.00 0.00 0.00 80 1014.0
20260905173937 59 119 2.0 3.0 0.00 0.00 0.00 80 1013.8
20260905172918 58 122 2.0 2.0 0.00 0.00 0.00 78 1013.8
20260905171918 58 127 2.0 3.0 0.00 0.00 0.00 78 1013.7
20260905170917 58 108 2.0 3.0 0.00 0.00 0.00 77 1013.6
20260905165917 58 122 2.0 3.0 0.00 0.00 0.00 76 1013.4
20260905164917 59 91 2.0 3.0 0.00 0.00 0.00 73 1013.3
20260905163917 59 102 2.0 3.0 0.00 0.00 0.00 69 1013.2
20260905162957 58 115 3.0 3.0 0.00 0.00 0.00 69 1013.3
20260905161917 59 115 2.0 3.0 0.00 0.00 0.00 72 1013.3
20260905160917 59 104 1.0 3.0 0.00 0.00 0.00 73 1013.3
20260905155917 60 85 2.0 3.0 0.00 0.00 0.00 71 1013.3
20260905154917 60 117 2.0 3.0 0.00 0.00 0.00 70 1013.4
20260905153917 60 102 3.0 4.0 0.00 0.00 0.00 66 1013.3
20260905152937 59 113 3.0 4.0 0.00 0.00 0.00 70 1013.2
20260905151957 59 106 2.0 3.0 0.00 0.00 0.00 73 1013.2
20260905150917 58 83 3.0 5.0 0.00 0.00 0.00 74 1013.3
20260905145917 58 104 2.0 3.0 0.00 0.00 0.00 75 1013.4
20260905144917 57 117 2.0 3.0 0.00 0.00 0.00 82 1013.4
20260905143937 57 95 2.0 3.0 0.00 0.00 0.00 82 1013.4
20260905142937 57 106 2.0 3.0 0.00 0.00 0.00 81 1013.4
20260905141918 57 115 2.0 2.0 0.00 0.00 0.00 83 1013.5
20260905140917 58 122 2.0 3.0 0.00 0.00 0.00 83 1013.4
20260905135917 58 109 2.0 3.0 0.00 0.00 0.00 83 1013.5
20260905134917 58 104 2.0 3.0 0.00 0.00 0.00 80 1013.4
20260905133917 58 108 2.0 3.0 0.00 0.00 0.00 83 1013.1
20260905132937 58 98 2.0 4.0 0.00 0.00 0.00 82 1013.1
20260905131917 58 100 2.0 3.0 0.00 0.00 0.00 79 1013.2
20260905130917 58 96 2.0 3.0 0.00 0.00 0.00 78 1013.1
20260905125917 58 121 3.0 3.0 0.00 0.00 0.00 82 1013.3
20260905124917 58 106 3.0 3.0 0.00 0.00 0.00 78 1013.3
20260905123917 58 103 2.0 3.0 0.00 0.00 0.00 79 1013.3
20260905122917 58 105 2.0 3.0 0.00 0.00 0.00 84 1013.5
20260905121918 58 96 2.0 3.0 0.00 0.00 0.00 82 1013.6
20260905120917 59 109 2.0 3.0 0.00 0.00 0.00 82 1013.6
20260905115917 60 0.0 0.0 0.00 0.00 0.00 83 1013.7
20260905114917 60 96 2.0 3.0 0.00 0.00 0.00 80 1013.9
20260905113937 60 106 2.0 3.0 0.00 0.00 0.00 75 1013.8
20260905112938 59 111 2.0 3.0 0.00 0.00 0.00 77 1014.0
20260905111917 59 110 2.0 3.0 0.00 0.00 0.00 78 1014.1
20260905110917 60 116 2.0 3.0 0.00 0.00 0.00 83 1014.2
20260905105917 61 109 1.0 2.0 0.00 0.00 0.00 84 1014.4
20260905104917 61 121 2.0 4.0 0.00 0.00 0.00 80 1014.4
20260905103917 60 42 2.0 4.0 0.00 0.00 0.00 79 1014.6
20260905102917 61 111 1.0 2.0 0.00 0.00 0.00 80 1014.5
20260905101917 62 98 2.0 3.0 0.00 0.00 0.00 81 1014.7
20260905100917 61 104 3.0 4.0 0.00 0.00 0.00 79 1014.8
20260905095917 61 103 2.0 3.0 0.00 0.00 0.00 81 1014.7
20260905094917 61 109 3.0 4.0 0.00 0.00 0.00 82 1014.7
20260905093937 61 112 2.0 3.0 0.00 0.00 0.00 83 1014.7
20260905092917 61 120 2.0 3.0 0.00 0.00 0.00 84 1014.9
20260905091917 61 94 1.0 3.0 0.00 0.00 0.00 85 1014.9
20260905090937 60 102 1.0 3.0 0.00 0.00 0.00 84 1014.9
20260905085917 60 111 2.0 3.0 0.00 0.00 0.00 86 1015.0
20260905084937 60 112 1.0 3.0 0.00 0.00 0.00 88 1015.1
20260905083917 61 123 2.0 3.0 0.00 0.00 0.00 85 1015.2
20260905082917 61 128 1.0 3.0 0.00 0.00 0.00 87 1015.4
20260905081917 61 106 2.0 4.0 0.00 0.00 0.00 87 1015.6
20260905080917 61 105 1.0 2.0 0.00 0.00 0.00 88 1015.5
20260905075917 61 108 2.0 3.0 0.00 0.00 0.00 87 1015.6
20260905074917 61 114 1.0 2.0 0.00 0.00 0.00 88 1015.7
20260905073918 62 101 2.0 3.0 0.00 0.00 0.00 89 1015.7
20260905072916 62 112 2.0 3.0 0.00 0.00 0.00 89 1015.7
20260905071937 62 106 2.0 2.0 0.00 0.00 0.00 89 1015.7
20260905070917 63 105 2.0 4.0 0.00 0.00 0.00 90 1015.5
20260905065937 63 101 1.0 2.0 0.00 0.00 0.00 89 1015.2
20260905064917 63 109 1.0 2.0 0.00 0.00 0.00 90 1015.3
20260905063917 63 107 2.0 3.0 0.00 0.00 0.00 89 1015.3
20260905062917 64 107 1.0 1.0 0.00 0.00 0.00 92 1015.1
20260905061917 65 107 0.0 1.0 0.00 0.00 0.00 93 1014.9
20260905060917 66 0.0 0.0 0.00 0.00 0.00 93 1014.8
20260905055937 66 71 1.0 2.0 0.00 0.00 0.00 92 1014.9
20260905054917 67 342 0.0 1.0 0.00 0.00 0.00 92 1014.8
20260905053917 67 339 1.0 2.0 0.00 0.00 0.00 90 1014.6
20260905053017 67 348 1.0 3.0 0.00 0.00 0.00 89 1014.5
20260905051917 68 336 0.0 2.0 0.00 0.00 0.00 87 1014.4
20260905050917 69 0.0 1.0 0.00 0.00 0.00 86 1014.4
20260905045917 70 0.0 0.0 0.00 0.00 0.00 84 1014.3
20260905044917 71 331 1.0 2.0 0.00 0.00 0.00 83 1014.2
20260905043916 72 301 0.0 2.0 0.00 0.00 0.00 80 1014.1
20260905042917 72 174 0.0 1.0 0.00 0.00 0.00 80 1014.0
20260905041917 73 232 0.0 1.0 0.00 0.00 0.00 78 1014.0
20260905040917 73 237 1.0 2.0 0.00 0.00 0.00 81 1014.0
20260905035916 73 269 1.0 2.0 0.00 0.00 0.00 82 1013.8
20260905034936 72 216 2.0 4.0 0.00 0.00 0.00 83 1013.7
20260905033917 72 207 3.0 4.0 0.00 0.00 0.00 84 1013.8
20260905032917 73 219 3.0 5.0 0.00 0.00 0.00 82 1013.7
20260905031916 72 232 2.0 5.0 0.00 0.00 0.00 83 1013.7
20260905030937 72 223 3.0 6.0 0.00 0.00 0.00 84 1013.6
20260905025917 72 218 2.0 4.0 0.00 0.00 0.00 83 1013.8
20260905024916 73 205 2.0 3.0 0.00 0.00 0.00 83 1013.7
20260905023918 73 188 2.0 6.0 0.00 0.00 0.00 82 1013.7
20260905022937 72 223 3.0 5.0 0.00 0.00 0.00 84 1013.6
20260905021917 70 213 2.0 5.0 0.00 0.00 0.00 86 1013.7
20260905020917 70 201 1.0 3.0 0.00 0.00 0.00 87 1013.7
20260905015937 70 213 4.0 6.0 0.00 0.00 0.00 87 1013.8
20260905014957 70 199 4.0 8.0 0.00 0.00 0.00 87 1013.7
20260905013916 70 225 2.0 4.0 0.00 0.00 0.00 88 1013.7
20260905012917 70 178 2.0 4.0 0.00 0.00 0.00 87 1013.8
20260905011917 70 194 4.0 5.0 0.00 0.00 0.00 87 1013.8
20260905010917 70 206 2.0 7.0 0.00 0.00 0.00 87 1013.7
20260905005916 70 214 2.0 4.0 0.00 0.00 0.00 87 1013.9
20260905004917 70 202 3.0 5.0 0.00 0.00 0.00 86 1013.9
20260905003917 70 198 3.0 5.0 0.00 0.00 0.00 84 1014.0
20260905002917 71 212 3.0 5.0 0.00 0.00 0.00 85 1014.0
20260905001936 70 203 2.0 4.0 0.00 0.00 0.00 84 1014.0
20260905000916 70 207 3.0 5.0 0.00 0.00 0.00 84 1014.1
20260904235917 71 217 2.0 4.0 0.00 0.00 0.00 84 1014.3
20260904234916 71 211 3.0 5.0 0.00 0.00 0.00 84 1014.3
20260904233916 71 203 2.0 4.0 0.00 0.00 0.00 84 1014.5
20260904232916 71 189 4.0 6.0 0.00 0.00 0.00 84 1014.5
20260904231916 70 197 2.0 5.0 0.00 0.00 0.00 84 1014.7
20260904230916 70 209 2.0 5.0 0.00 0.00 0.00 85 1014.8
20260904225917 70 183 2.0 3.0 0.00 0.00 0.00 86 1014.9
20260904224936 70 212 2.0 2.0 0.00 0.00 0.00 87 1015.1
20260904224618 70 209 3.0 5.0 0.00 0.00 0.00 86 1015.1
20260904223618 70 192 2.0 3.0 0.00 0.00 0.00 87 1015.1
20260904222657 71 198 1.0 2.0 0.00 0.00 0.00 87 1015.1
20260904221618 71 224 2.0 4.0 0.00 0.00 0.00 87 1015.3
20260904220617 71 294 1.0 2.0 0.00 0.00 0.00 87 1015.3